Private Wetterstation Sandau
Wetterdaten: Samstag, 08.09.2012
Datum Zeit Temp. A. Feuchte A. Luftdruck Regen Wind Richtung Richtung Taupunkt Windchill
08.09.2012 00:01 15,4 C 89 % 1021,4 hPa 0,0 l/m 2,2 km/h (1 Bft) W-NW 292 13,6 C 15,4 C
08.09.2012 00:06 15,5 C 89 % 1021,4 hPa 0,0 l/m 0,0 km/h (0 Bft) W-NW 292 13,7 C 15,5 C
08.09.2012 00:11 15,4 C 89 % 1021,4 hPa 0,0 l/m 5,0 km/h (1 Bft) W-NW 292 13,6 C 15,4 C
08.09.2012 00:16 15,4 C 89 % 1021,3 hPa 0,0 l/m 4,7 km/h (1 Bft) W-NW 292 13,6 C 15,4 C
08.09.2012 00:21 15,4 C 89 % 1021,3 hPa 0,0 l/m 0,0 km/h (0 Bft) W-NW 292 13,6 C 15,4 C
08.09.2012 00:26 15,4 C 89 % 1021,4 hPa 0,0 l/m 4,0 km/h (1 Bft) W-NW 292 13,6 C 15,4 C
08.09.2012 00:31 15,4 C 90 % 1021,4 hPa 0,0 l/m 1,8 km/h (1 Bft) W-NW 292 13,8 C 15,4 C
08.09.2012 00:36 15,4 C 90 % 1021,3 hPa 0,0 l/m 5,0 km/h (1 Bft) W-NW 292 13,8 C 15,4 C
08.09.2012 00:41 15,4 C 90 % 1021,4 hPa 0,0 l/m 5,4 km/h (1 Bft) W-NW 292 13,8 C 15,4 C
08.09.2012 00:46 15,4 C 90 % 1021,4 hPa 0,0 l/m 2,2 km/h (1 Bft) NW 315 13,8 C 15,4 C
08.09.2012 00:51 15,4 C 90 % 1021,3 hPa 0,0 l/m 5,8 km/h (2 Bft) W-NW 292 13,8 C 15,4 C
08.09.2012 00:56 15,4 C 90 % 1021,2 hPa 0,0 l/m 2,2 km/h (1 Bft) W-NW 292 13,8 C 15,4 C
08.09.2012 01:01 15,4 C 90 % 1021,2 hPa 0,0 l/m 2,9 km/h (1 Bft) W-NW 292 13,8 C 15,4 C
08.09.2012 01:06 15,4 C 90 % 1021,2 hPa 0,0 l/m 0,0 km/h (0 Bft) W-NW 292 13,8 C 15,4 C
08.09.2012 01:11 15,4 C 90 % 1021,2 hPa 0,0 l/m 0,0 km/h (0 Bft) W-NW 292 13,8 C 15,4 C
08.09.2012 01:16 15,4 C 90 % 1021,2 hPa 0,5 l/m 1,8 km/h (1 Bft) W-NW 292 13,8 C 15,4 C
08.09.2012 01:21 15,4 C 90 % 1021,1 hPa 0,0 l/m 0,0 km/h (0 Bft) W-NW 292 13,8 C 15,4 C
08.09.2012 01:26 15,4 C 90 % 1021,1 hPa 0,0 l/m 0,0 km/h (0 Bft) W-NW 292 13,8 C 15,4 C
08.09.2012 01:31 15,5 C 90 % 1021,1 hPa 0,0 l/m 0,0 km/h (0 Bft) W-NW 292 13,9 C 15,5 C
08.09.2012 01:36 15,4 C 90 % 1021,0 hPa 0,0 l/m 0,0 km/h (0 Bft) W-NW 292 13,8 C 15,4 C
08.09.2012 01:41 15,5 C 90 % 1021,0 hPa 0,0 l/m 0,0 km/h (0 Bft) W-NW 292 13,9 C 15,5 C
08.09.2012 01:46 15,5 C 90 % 1020,8 hPa 0,0 l/m 1,4 km/h (1 Bft) W-NW 292 13,9 C 15,5 C
08.09.2012 01:51 15,5 C 90 % 1020,9 hPa 0,0 l/m 4,3 km/h (1 Bft) W-NW 292 13,9 C 15,5 C
08.09.2012 01:56 15,5 C 90 % 1020,9 hPa 0,0 l/m 4,3 km/h (1 Bft) W-NW 292 13,9 C 15,5 C
08.09.2012 02:01 15,5 C 90 % 1020,8 hPa 0,0 l/m 3,6 km/h (1 Bft) W 270 13,9 C 15,5 C
08.09.2012 02:06 15,5 C 90 % 1020,9 hPa 0,0 l/m 0,0 km/h (0 Bft) W 270 13,9 C 15,5 C
08.09.2012 02:11 15,5 C 90 % 1020,9 hPa 0,0 l/m 0,0 km/h (0 Bft) W 270 13,9 C 15,5 C
08.09.2012 02:16 15,5 C 90 % 1020,8 hPa 0,0 l/m 4,0 km/h (1 Bft) W 270 13,9 C 15,5 C
08.09.2012 02:21 15,5 C 90 % 1020,8 hPa 0,0 l/m 2,5 km/h (1 Bft) W 270 13,9 C 15,5 C
08.09.2012 02:26 15,5 C 90 % 1020,9 hPa 0,0 l/m 7,9 km/h (2 Bft) W 270 13,9 C 15,5 C
08.09.2012 02:31 15,5 C 90 % 1020,9 hPa 0,0 l/m 3,2 km/h (1 Bft) W 270 13,9 C 15,5 C
08.09.2012 02:36 15,5 C 90 % 1020,9 hPa 0,0 l/m 4,0 km/h (1 Bft) W 270 13,9 C 15,5 C
08.09.2012 02:41 15,4 C 90 % 1020,8 hPa 0,5 l/m 5,0 km/h (1 Bft) W 270 13,8 C 15,4 C
08.09.2012 02:46 15,4 C 90 % 1020,9 hPa 0,0 l/m 0,0 km/h (0 Bft) W 270 13,8 C 15,4 C
08.09.2012 02:51 15,4 C 90 % 1020,9 hPa 0,0 l/m 4,7 km/h (1 Bft) W 270 13,8 C 15,4 C
08.09.2012 02:56 15,4 C 90 % 1020,9 hPa 0,0 l/m 1,4 km/h (1 Bft) W 270 13,8 C 15,4 C
08.09.2012 03:01 15,4 C 90 % 1020,9 hPa 0,0 l/m 1,4 km/h (1 Bft) W 270 13,8 C 15,4 C
08.09.2012 03:06 15,4 C 90 % 1020,8 hPa 0,0 l/m 5,0 km/h (1 Bft) W 270 13,8 C 15,4 C
08.09.2012 03:11 15,4 C 90 % 1020,9 hPa 0,0 l/m 1,4 km/h (1 Bft) W 270 13,8 C 15,4 C
08.09.2012 03:16 15,4 C 90 % 1020,9 hPa 0,0 l/m 0,0 km/h (0 Bft) W 270 13,8 C 15,4 C
08.09.2012 03:21 15,4 C 90 % 1020,9 hPa 0,0 l/m 0,0 km/h (0 Bft) W 270 13,8 C 15,4 C
08.09.2012 03:26 15,4 C 90 % 1020,9 hPa 0,0 l/m 1,1 km/h (1 Bft) W 270 13,8 C 15,4 C
08.09.2012 03:31 15,4 C 90 % 1020,8 hPa 0,0 l/m 0,0 km/h (0 Bft) W 270 13,8 C 15,4 C
08.09.2012 03:36 15,4 C 91 % 1020,7 hPa 0,0 l/m 4,7 km/h (1 Bft) W 270 13,9 C 15,4 C
08.09.2012 03:41 15,4 C 91 % 1020,7 hPa 0,0 l/m 4,0 km/h (1 Bft) W 270 13,9 C 15,4 C
08.09.2012 03:46 15,4 C 91 % 1020,8 hPa 0,0 l/m 6,8 km/h (2 Bft) W 270 13,9 C 15,4 C
08.09.2012 03:51 15,5 C 91 % 1020,6 hPa 0,0 l/m 4,7 km/h (1 Bft) W 270 14,0 C 15,5 C
08.09.2012 03:56 15,5 C 91 % 1020,7 hPa 0,5 l/m 6,1 km/h (2 Bft) W 270 14,0 C 15,5 C
08.09.2012 04:01 15,5 C 91 % 1020,6 hPa 0,0 l/m 8,3 km/h (2 Bft) W 270 14,0 C 15,5 C
08.09.2012 04:06 15,5 C 91 % 1020,6 hPa 0,0 l/m 7,6 km/h (2 Bft) W 270 14,0 C 15,5 C
08.09.2012 04:11 15,4 C 91 % 1020,6 hPa 0,0 l/m 5,4 km/h (1 Bft) W-NW 292 13,9 C 15,4 C
08.09.2012 04:16 15,4 C 91 % 1020,4 hPa 0,5 l/m 4,0 km/h (1 Bft) W 270 13,9 C 15,4 C
08.09.2012 04:21 15,4 C 91 % 1020,4 hPa 0,0 l/m 2,5 km/h (1 Bft) W 270 13,9 C 15,4 C
08.09.2012 04:26 15,4 C 91 % 1020,4 hPa 0,0 l/m 5,4 km/h (1 Bft) W 270 13,9 C 15,4 C
08.09.2012 04:31 15,4 C 91 % 1020,4 hPa 0,5 l/m 3,6 km/h (1 Bft) W 270 13,9 C 15,4 C
08.09.2012 04:36 15,4 C 91 % 1020,4 hPa 0,0 l/m 0,0 km/h (0 Bft) W 270 13,9 C 15,4 C
08.09.2012 04:41 15,4 C 91 % 1020,4 hPa 0,0 l/m 5,8 km/h (2 Bft) W 270 13,9 C 15,4 C
08.09.2012 04:46 15,4 C 91 % 1020,3 hPa 0,5 l/m 3,2 km/h (1 Bft) W 270 13,9 C 15,4 C
08.09.2012 04:51 15,4 C 91 % 1020,3 hPa 0,0 l/m 3,2 km/h (1 Bft) W 270 13,9 C 15,4 C
08.09.2012 04:56 15,4 C 91 % 1020,3 hPa 0,0 l/m 3,6 km/h (1 Bft) W 270 13,9 C 15,4 C
08.09.2012 05:01 15,5 C 91 % 1020,2 hPa 0,0 l/m 6,5 km/h (2 Bft) W 270 14,0 C 15,5 C
08.09.2012 05:06 15,4 C 91 % 1020,1 hPa 0,5 l/m 7,6 km/h (2 Bft) W 270 13,9 C 15,4 C
08.09.2012 05:11 15,5 C 91 % 1020,1 hPa 0,0 l/m 8,6 km/h (2 Bft) W 270 14,0 C 15,5 C
08.09.2012 05:16 15,4 C 91 % 1020,1 hPa 0,0 l/m 2,5 km/h (1 Bft) W 270 13,9 C 15,4 C
08.09.2012 05:21 15,5 C 91 % 1020,1 hPa 0,0 l/m 7,6 km/h (2 Bft) W 270 14,0 C 15,5 C
08.09.2012 05:26 15,5 C 91 % 1020,0 hPa 0,0 l/m 4,0 km/h (1 Bft) W 270 14,0 C 15,5 C
08.09.2012 05:31 15,4 C 91 % 1019,9 hPa 0,0 l/m 0,0 km/h (0 Bft) W 270 13,9 C 15,4 C
08.09.2012 05:36 15,4 C 92 % 1020,0 hPa 0,0 l/m 2,2 km/h (1 Bft) W-NW 292 14,1 C 15,4 C
08.09.2012 05:41 15,4 C 92 % 1020,0 hPa 0,0 l/m 4,3 km/h (1 Bft) W 270 14,1 C 15,4 C
08.09.2012 05:46 15,4 C 92 % 1019,9 hPa 0,0 l/m 0,0 km/h (0 Bft) W-NW 292 14,1 C 15,4 C
08.09.2012 05:51 15,4 C 92 % 1019,9 hPa 0,0 l/m 3,6 km/h (1 Bft) W 270 14,1 C 15,4 C
08.09.2012 05:56 15,4 C 92 % 1019,8 hPa 0,0 l/m 4,0 km/h (1 Bft) W 270 14,1 C 15,4 C
08.09.2012 06:01 15,4 C 92 % 1019,8 hPa 0,5 l/m 8,3 km/h (2 Bft) W 270 14,1 C 15,4 C
08.09.2012 06:06 15,4 C 92 % 1019,7 hPa 0,0 l/m 7,2 km/h (2 Bft) W 270 14,1 C 15,4 C
08.09.2012 06:11 15,5 C 92 % 1019,7 hPa 0,0 l/m 6,5 km/h (2 Bft) W-NW 292 14,2 C 15,5 C
08.09.2012 06:16 15,5 C 92 % 1019,7 hPa 0,0 l/m 2,5 km/h (1 Bft) W 270 14,2 C 15,5 C
08.09.2012 06:21 15,6 C 92 % 1019,8 hPa 0,0 l/m 5,0 km/h (1 Bft) W 270 14,3 C 15,6 C
08.09.2012 06:26 15,6 C 92 % 1019,8 hPa 0,0 l/m 4,3 km/h (1 Bft) W-NW 292 14,3 C 15,6 C
08.09.2012 06:31 15,8 C 92 % 1019,8 hPa 0,0 l/m 9,7 km/h (2 Bft) W-NW 292 14,5 C 15,8 C
08.09.2012 06:36 15,8 C 92 % 1019,8 hPa 0,0 l/m 5,4 km/h (1 Bft) W-NW 292 14,5 C 15,8 C
08.09.2012 06:41 15,8 C 92 % 1019,8 hPa 0,0 l/m 6,5 km/h (2 Bft) W-NW 292 14,5 C 15,8 C
08.09.2012 06:46 15,9 C 92 % 1019,8 hPa 0,0 l/m 6,1 km/h (2 Bft) W-NW 292 14,6 C 15,9 C
08.09.2012 06:51 15,9 C 92 % 1019,9 hPa 0,0 l/m 7,9 km/h (2 Bft) W 270 14,6 C 15,9 C
08.09.2012 06:56 15,9 C 92 % 1019,8 hPa 0,0 l/m 14,4 km/h (3 Bft) W-NW 292 14,6 C 15,9 C
08.09.2012 07:01 15,9 C 92 % 1019,9 hPa 0,0 l/m 6,5 km/h (2 Bft) W-NW 292 14,6 C 15,9 C
08.09.2012 07:06 15,9 C 92 % 1020,0 hPa 0,0 l/m 8,3 km/h (2 Bft) W 270 14,6 C 15,9 C
08.09.2012 07:11 15,9 C 92 % 1020,0 hPa 0,0 l/m 4,3 km/h (1 Bft) W-NW 292 14,6 C 15,9 C
08.09.2012 07:16 15,9 C 92 % 1020,0 hPa 0,0 l/m 6,1 km/h (2 Bft) W 270 14,6 C 15,9 C
08.09.2012 07:21 15,9 C 92 % 1020,1 hPa 0,0 l/m 6,1 km/h (2 Bft) W-NW 292 14,6 C 15,9 C
08.09.2012 07:26 15,9 C 92 % 1020,1 hPa 0,0 l/m 5,0 km/h (1 Bft) NW 315 14,6 C 15,9 C
08.09.2012 07:31 15,9 C 92 % 1020,3 hPa 0,0 l/m 5,8 km/h (2 Bft) W 270 14,6 C 15,9 C
08.09.2012 07:36 15,9 C 92 % 1020,3 hPa 0,0 l/m 8,6 km/h (2 Bft) W-NW 292 14,6 C 15,9 C
08.09.2012 07:41 15,9 C 92 % 1020,3 hPa 0,0 l/m 2,2 km/h (1 Bft) NW 315 14,6 C 15,9 C
08.09.2012 07:46 15,8 C 92 % 1020,4 hPa 0,5 l/m 13,7 km/h (3 Bft) W-NW 292 14,5 C 15,8 C
08.09.2012 07:51 15,8 C 92 % 1020,3 hPa 0,0 l/m 4,0 km/h (1 Bft) W-NW 292 14,5 C 15,8 C
08.09.2012 07:56 15,7 C 91 % 1020,4 hPa 0,0 l/m 6,1 km/h (2 Bft) NW 315 14,2 C 15,7 C
08.09.2012 08:01 15,6 C 91 % 1020,3 hPa 0,0 l/m 10,1 km/h (2 Bft) W-NW 292 14,1 C 15,6 C
08.09.2012 08:06 15,6 C 91 % 1020,4 hPa 0,0 l/m 5,4 km/h (1 Bft) NW 315 14,1 C 15,6 C
08.09.2012 08:11 15,6 C 91 % 1020,4 hPa 0,0 l/m 2,9 km/h (1 Bft) W-NW 292 14,1 C 15,6 C
08.09.2012 08:16 15,6 C 91 % 1020,5 hPa 0,0 l/m 5,8 km/h (2 Bft) NW 315 14,1 C 15,6 C
08.09.2012 08:21 15,8 C 91 % 1020,4 hPa 0,0 l/m 9,0 km/h (2 Bft) W 270 14,3 C 15,8 C
08.09.2012 08:26 15,9 C 91 % 1020,4 hPa 0,0 l/m 2,5 km/h (1 Bft) W-NW 292 14,4 C 15,9 C
08.09.2012 08:31 15,9 C 91 % 1020,5 hPa 0,0 l/m 1,4 km/h (1 Bft) W 270 14,4 C 15,9 C
08.09.2012 08:36 16,1 C 91 % 1020,6 hPa 0,0 l/m 2,5 km/h (1 Bft) W-NW 292 14,6 C 16,1 C
08.09.2012 08:41 16,1 C 91 % 1020,5 hPa 0,0 l/m 5,4 km/h (1 Bft) W 270 14,6 C 16,1 C
08.09.2012 08:46 16,1 C 91 % 1020,7 hPa 0,0 l/m 7,9 km/h (2 Bft) W-NW 292 14,6 C 16,1 C
08.09.2012 08:51 16,2 C 91 % 1020,7 hPa 0,0 l/m 3,2 km/h (1 Bft) W-NW 292 14,7 C 16,2 C
08.09.2012 08:56 16,3 C 91 % 1020,7 hPa 0,0 l/m 5,8 km/h (2 Bft) W-NW 292 14,8 C 16,3 C
08.09.2012 09:01 16,3 C 91 % 1020,6 hPa 0,0 l/m 4,3 km/h (1 Bft) W 270 14,8 C 16,3 C
08.09.2012 09:06 16,3 C 91 % 1020,7 hPa 0,0 l/m 6,1 km/h (2 Bft) W-NW 292 14,8 C 16,3 C
08.09.2012 09:11 16,3 C 91 % 1020,5 hPa 0,5 l/m 14,0 km/h (3 Bft) NW 315 14,8 C 16,3 C
08.09.2012 09:16 16,3 C 91 % 1020,5 hPa 0,0 l/m 9,4 km/h (2 Bft) W-NW 292 14,8 C 16,3 C
08.09.2012 09:21 16,4 C 91 % 1020,6 hPa 0,0 l/m 6,8 km/h (2 Bft) W 270 14,9 C 16,4 C
08.09.2012 09:26 16,4 C 91 % 1020,7 hPa 0,0 l/m 3,6 km/h (1 Bft) W-NW 292 14,9 C 16,4 C
08.09.2012 09:31 16,5 C 91 % 1020,7 hPa 0,0 l/m 10,1 km/h (2 Bft) W-NW 292 15,0 C 16,5 C
08.09.2012 09:36 16,6 C 91 % 1020,7 hPa 0,0 l/m 5,0 km/h (1 Bft) W-NW 292 15,1 C 16,6 C
08.09.2012 09:41 16,6 C 91 % 1020,7 hPa 0,0 l/m 2,5 km/h (1 Bft) W-NW 292 15,1 C 16,6 C
08.09.2012 09:46 16,6 C 91 % 1020,7 hPa 0,0 l/m 12,6 km/h (3 Bft) W-NW 292 15,1 C 16,6 C
08.09.2012 09:51 16,7 C 91 % 1021,0 hPa 0,0 l/m 6,8 km/h (2 Bft) W-NW 292 15,2 C 16,7 C
08.09.2012 09:56 16,8 C 91 % 1021,0 hPa 0,0 l/m 10,1 km/h (2 Bft) NW 315 15,3 C 16,8 C
08.09.2012 10:01 16,8 C 91 % 1020,8 hPa 0,0 l/m 5,0 km/h (1 Bft) W 270 15,3 C 16,8 C
08.09.2012 10:06 16,8 C 91 % 1020,9 hPa 0,0 l/m 5,0 km/h (1 Bft) NW 315 15,3 C 16,8 C
08.09.2012 10:11 16,8 C 90 % 1021,1 hPa 0,0 l/m 6,5 km/h (2 Bft) W-NW 292 15,1 C 16,8 C
08.09.2012 10:16 16,8 C 90 % 1021,1 hPa 0,0 l/m 6,1 km/h (2 Bft) NW 315 15,1 C 16,8 C
08.09.2012 10:21 16,8 C 90 % 1021,1 hPa 0,0 l/m 7,9 km/h (2 Bft) W-NW 292 15,1 C 16,8 C
08.09.2012 10:26 16,8 C 90 % 1021,0 hPa 0,0 l/m 5,0 km/h (1 Bft) W 270 15,1 C 16,8 C
08.09.2012 10:31 16,9 C 90 % 1021,0 hPa 0,0 l/m 5,8 km/h (2 Bft) W 270 15,2 C 16,9 C
08.09.2012 10:36 17,3 C 90 % 1020,9 hPa 0,0 l/m 7,9 km/h (2 Bft) NW 315 15,6 C 17,3 C
08.09.2012 10:41 17,5 C 90 % 1021,0 hPa 0,0 l/m 5,8 km/h (2 Bft) W-NW 292 15,8 C 17,5 C
08.09.2012 10:46 17,5 C 89 % 1021,0 hPa 0,0 l/m 6,1 km/h (2 Bft) W 270 15,7 C 17,5 C
08.09.2012 10:51 17,5 C 89 % 1021,0 hPa 0,0 l/m 12,6 km/h (3 Bft) NW 315 15,7 C 17,5 C
08.09.2012 10:56 17,6 C 89 % 1020,8 hPa 0,0 l/m 7,9 km/h (2 Bft) W-NW 292 15,8 C 17,6 C
08.09.2012 11:01 17,7 C 89 % 1020,8 hPa 0,0 l/m 0,0 km/h (0 Bft) W-NW 292 15,9 C 17,7 C
08.09.2012 11:06 17,9 C 89 % 1020,8 hPa 0,0 l/m 4,3 km/h (1 Bft) W-NW 292 16,1 C 17,9 C
08.09.2012 11:11 18,0 C 88 % 1020,9 hPa 0,0 l/m 4,7 km/h (1 Bft) W-NW 292 16,0 C 18,0 C
08.09.2012 11:16 18,0 C 87 % 1021,0 hPa 0,0 l/m 10,4 km/h (2 Bft) NW 315 15,8 C 18,0 C
08.09.2012 11:21 18,1 C 87 % 1020,9 hPa 0,0 l/m 13,0 km/h (3 Bft) W 270 15,9 C 18,1 C
08.09.2012 11:26 18,1 C 87 % 1020,8 hPa 0,0 l/m 6,1 km/h (2 Bft) NW 315 15,9 C 18,1 C
08.09.2012 11:31 18,3 C 87 % 1020,8 hPa 0,0 l/m 6,1 km/h (2 Bft) W 270 16,1 C 18,3 C
08.09.2012 11:36 18,4 C 86 % 1020,7 hPa 0,0 l/m 7,2 km/h (2 Bft) W 270 16,0 C 18,4 C
08.09.2012 11:41 18,7 C 85 % 1020,8 hPa 0,0 l/m 10,8 km/h (2 Bft) W-SW 247 16,1 C 18,7 C
08.09.2012 11:46 18,9 C 85 % 1020,7 hPa 0,0 l/m 5,0 km/h (1 Bft) W 270 16,3 C 18,9 C
08.09.2012 11:51 19,1 C 84 % 1020,7 hPa 0,0 l/m 16,9 km/h (3 Bft) W 270 16,3 C 19,1 C
08.09.2012 11:56 19,6 C 83 % 1020,7 hPa 0,0 l/m 9,7 km/h (2 Bft) NW 315 16,6 C 19,6 C
08.09.2012 12:01 19,9 C 81 % 1020,7 hPa 0,0 l/m 10,1 km/h (2 Bft) W 270 16,5 C 19,9 C
08.09.2012 12:06 20,1 C 79 % 1020,7 hPa 0,0 l/m 6,8 km/h (2 Bft) W-NW 292 16,3 C 20,1 C
08.09.2012 12:11 20,1 C 77 % 1020,6 hPa 0,0 l/m 8,3 km/h (2 Bft) W 270 15,9 C 20,1 C
08.09.2012 12:16 19,9 C 77 % 1020,7 hPa 0,0 l/m 5,0 km/h (1 Bft) W-NW 292 15,7 C 19,9 C
08.09.2012 12:21 19,7 C 77 % 1020,7 hPa 0,0 l/m 10,8 km/h (2 Bft) W-NW 292 15,5 C 19,7 C
08.09.2012 12:26 19,6 C 78 % 1020,6 hPa 0,0 l/m 14,0 km/h (3 Bft) W-NW 292 15,7 C 19,6 C
08.09.2012 12:31 19,6 C 78 % 1020,6 hPa 0,0 l/m 7,2 km/h (2 Bft) W-NW 292 15,7 C 19,6 C
08.09.2012 12:36 19,9 C 78 % 1020,5 hPa 0,0 l/m 11,2 km/h (2 Bft) W-NW 292 15,9 C 19,9 C
08.09.2012 12:41 20,5 C 76 % 1020,6 hPa 0,0 l/m 20,5 km/h (4 Bft) N 360 16,1 C 20,5 C
08.09.2012 12:46 20,8 C 74 % 1020,5 hPa 0,0 l/m 6,1 km/h (2 Bft) W-NW 292 16,0 C 20,8 C
08.09.2012 12:51 20,7 C 74 % 1020,4 hPa 0,0 l/m 6,1 km/h (2 Bft) NW 315 15,9 C 20,7 C
08.09.2012 12:56 20,5 C 74 % 1020,4 hPa 0,0 l/m 3,6 km/h (1 Bft) NW 315 15,7 C 20,5 C
08.09.2012 13:01 20,4 C 74 % 1020,3 hPa 0,0 l/m 5,4 km/h (1 Bft) W 270 15,6 C 20,4 C
08.09.2012 13:06 20,4 C 73 % 1020,4 hPa 0,0 l/m 5,0 km/h (1 Bft) N-NW 337 15,4 C 20,4 C
08.09.2012 13:11 20,3 C 74 % 1020,3 hPa 0,0 l/m 6,1 km/h (2 Bft) W-NW 292 15,5 C 20,3 C
08.09.2012 13:16 20,5 C 74 % 1020,2 hPa 0,0 l/m 6,1 km/h (2 Bft) W-NW 292 15,7 C 20,5 C
08.09.2012 13:21 20,6 C 74 % 1020,3 hPa 0,0 l/m 4,0 km/h (1 Bft) W-NW 292 15,8 C 20,6 C
08.09.2012 13:26 20,6 C 74 % 1020,2 hPa 0,0 l/m 3,6 km/h (1 Bft) W-NW 292 15,8 C 20,6 C
08.09.2012 13:31 20,6 C 74 % 1020,1 hPa 0,0 l/m 6,1 km/h (2 Bft) W-NW 292 15,8 C 20,6 C
08.09.2012 13:36 20,6 C 74 % 1020,1 hPa 0,0 l/m 10,4 km/h (2 Bft) W 270 15,8 C 20,6 C
08.09.2012 13:41 21,1 C 74 % 1020,1 hPa 0,0 l/m 11,2 km/h (2 Bft) W-SW 247 16,3 C 21,1 C
08.09.2012 13:46 21,6 C 72 % 1020,1 hPa 0,0 l/m 9,4 km/h (2 Bft) W-NW 292 16,3 C 21,6 C
08.09.2012 13:51 21,8 C 70 % 1020,1 hPa 0,0 l/m 5,0 km/h (1 Bft) NW 315 16,1 C 21,8 C
08.09.2012 13:56 21,5 C 69 % 1020,0 hPa 0,0 l/m 6,1 km/h (2 Bft) W 270 15,6 C 21,5 C
08.09.2012 14:01 21,2 C 70 % 1019,9 hPa 0,0 l/m 6,1 km/h (2 Bft) W-NW 292 15,5 C 21,2 C
08.09.2012 14:06 21,0 C 70 % 1020,0 hPa 0,0 l/m 4,3 km/h (1 Bft) W-NW 292 15,3 C 21,0 C
08.09.2012 14:11 20,8 C 71 % 1020,0 hPa 0,0 l/m 5,8 km/h (2 Bft) W-NW 292 15,3 C 20,8 C
08.09.2012 14:16 20,7 C 72 % 1020,0 hPa 0,0 l/m 0,0 km/h (0 Bft) W-NW 292 15,5 C 20,7 C
08.09.2012 14:21 20,6 C 72 % 1019,9 hPa 0,0 l/m 5,0 km/h (1 Bft) W-NW 292 15,4 C 20,6 C
08.09.2012 14:26 20,6 C 73 % 1020,0 hPa 0,0 l/m 2,2 km/h (1 Bft) W 270 15,6 C 20,6 C
08.09.2012 14:31 20,7 C 73 % 1019,9 hPa 0,0 l/m 8,6 km/h (2 Bft) W-SW 247 15,7 C 20,7 C
08.09.2012 14:36 20,9 C 73 % 1019,8 hPa 0,0 l/m 11,2 km/h (2 Bft) W-NW 292 15,9 C 20,9 C
08.09.2012 14:41 21,2 C 71 % 1019,7 hPa 0,0 l/m 8,6 km/h (2 Bft) W-NW 292 15,7 C 21,2 C
08.09.2012 14:46 21,3 C 71 % 1019,7 hPa 0,0 l/m 1,8 km/h (1 Bft) W-NW 292 15,8 C 21,3 C
08.09.2012 14:51 21,3 C 71 % 1019,7 hPa 0,0 l/m 7,2 km/h (2 Bft) W 270 15,8 C 21,3 C
08.09.2012 14:56 21,3 C 71 % 1019,7 hPa 0,0 l/m 9,4 km/h (2 Bft) W 270 15,8 C 21,3 C
08.09.2012 15:01 21,3 C 70 % 1019,7 hPa 0,0 l/m 5,4 km/h (1 Bft) W 270 15,6 C 21,3 C
08.09.2012 15:06 21,3 C 70 % 1019,7 hPa 0,0 l/m 17,3 km/h (3 Bft) W 270 15,6 C 21,3 C
08.09.2012 15:11 21,1 C 70 % 1019,7 hPa 0,0 l/m 10,8 km/h (2 Bft) W-NW 292 15,4 C 21,1 C
08.09.2012 15:16 21,1 C 70 % 1019,7 hPa 0,0 l/m 10,1 km/h (2 Bft) W 270 15,4 C 21,1 C
08.09.2012 15:21 21,2 C 69 % 1019,7 hPa 0,0 l/m 17,6 km/h (3 Bft) NW 315 15,3 C 21,2 C
08.09.2012 15:26 21,3 C 68 % 1019,6 hPa 0,0 l/m 6,1 km/h (2 Bft) W-NW 292 15,1 C 21,3 C
08.09.2012 15:31 21,6 C 68 % 1019,6 hPa 0,0 l/m 6,8 km/h (2 Bft) W-NW 292 15,4 C 21,6 C
08.09.2012 15:36 21,8 C 67 % 1019,6 hPa 0,0 l/m 20,5 km/h (4 Bft) W-NW 292 15,4 C 21,8 C
08.09.2012 15:41 22,1 C 66 % 1019,6 hPa 0,0 l/m 8,3 km/h (2 Bft) NW 315 15,4 C 22,1 C
08.09.2012 15:46 22,4 C 66 % 1019,5 hPa 0,0 l/m 14,4 km/h (3 Bft) W 270 15,7 C 22,4 C
08.09.2012 15:51 22,6 C 65 % 1019,5 hPa 0,0 l/m 19,1 km/h (3 Bft) W 270 15,7 C 22,6 C
08.09.2012 15:56 22,8 C 63 % 1019,6 hPa 0,0 l/m 26,6 km/h (4 Bft) W-NW 292 15,4 C 22,8 C
08.09.2012 16:01 22,8 C 63 % 1019,5 hPa 0,0 l/m 12,6 km/h (3 Bft) NW 315 15,4 C 22,8 C
08.09.2012 16:06 22,9 C 63 % 1019,4 hPa 0,0 l/m 13,3 km/h (3 Bft) W 270 15,5 C 22,9 C
08.09.2012 16:11 22,6 C 63 % 1019,4 hPa 0,0 l/m 11,2 km/h (2 Bft) NW 315 15,2 C 22,6 C
08.09.2012 16:16 22,3 C 62 % 1019,3 hPa 0,0 l/m 5,0 km/h (1 Bft) W-SW 247 14,7 C 22,3 C
08.09.2012 16:21 22,2 C 63 % 1019,4 hPa 0,0 l/m 16,6 km/h (3 Bft) NW 315 14,8 C 22,2 C
08.09.2012 16:26 22,4 C 63 % 1019,3 hPa 0,0 l/m 14,0 km/h (3 Bft) W 270 15,0 C 22,4 C
08.09.2012 16:31 22,3 C 62 % 1019,4 hPa 0,0 l/m 24,1 km/h (4 Bft) N-NW 337 14,7 C 22,3 C
08.09.2012 16:36 22,2 C 62 % 1019,3 hPa 0,0 l/m 18,0 km/h (3 Bft) W 270 14,6 C 22,2 C
08.09.2012 16:41 22,0 C 61 % 1019,3 hPa 0,0 l/m 19,1 km/h (3 Bft) N-NW 337 14,1 C 22,0 C
08.09.2012 16:46 21,9 C 62 % 1019,2 hPa 0,0 l/m 5,8 km/h (2 Bft) W 270 14,3 C 21,9 C
08.09.2012 16:51 21,8 C 63 % 1019,3 hPa 0,0 l/m 10,4 km/h (2 Bft) NW 315 14,4 C 21,8 C
08.09.2012 16:56 21,6 C 63 % 1019,3 hPa 0,0 l/m 5,8 km/h (2 Bft) NW 315 14,2 C 21,6 C
08.09.2012 17:01 21,4 C 64 % 1019,2 hPa 0,0 l/m 11,5 km/h (2 Bft) W-NW 292 14,3 C 21,4 C
08.09.2012 17:06 21,3 C 64 % 1019,2 hPa 0,0 l/m 19,4 km/h (3 Bft) W 270 14,2 C 21,3 C
08.09.2012 17:11 21,4 C 64 % 1019,2 hPa 0,0 l/m 15,8 km/h (3 Bft) NW 315 14,3 C 21,4 C
08.09.2012 17:16 21,5 C 65 % 1019,2 hPa 0,0 l/m 3,6 km/h (1 Bft) W-NW 292 14,6 C 21,5 C
08.09.2012 17:21 21,5 C 64 % 1019,2 hPa 0,0 l/m 8,6 km/h (2 Bft) W 270 14,4 C 21,5 C
08.09.2012 17:26 21,6 C 64 % 1019,3 hPa 0,0 l/m 4,7 km/h (1 Bft) W-NW 292 14,5 C 21,6 C
08.09.2012 17:31 21,5 C 63 % 1019,2 hPa 0,0 l/m 6,8 km/h (2 Bft) W 270 14,2 C 21,5 C
08.09.2012 17:36 21,3 C 63 % 1019,3 hPa 0,0 l/m 6,1 km/h (2 Bft) W 270 14,0 C 21,3 C
08.09.2012 17:41 21,1 C 64 % 1019,3 hPa 0,0 l/m 12,6 km/h (3 Bft) NW 315 14,0 C 21,1 C
08.09.2012 17:46 20,9 C 64 % 1019,3 hPa 0,0 l/m 16,9 km/h (3 Bft) W-NW 292 13,8 C 20,9 C
08.09.2012 17:51 20,9 C 65 % 1019,3 hPa 0,0 l/m 4,0 km/h (1 Bft) W-NW 292 14,1 C 20,9 C
08.09.2012 17:56 20,9 C 65 % 1019,3 hPa 0,0 l/m 4,7 km/h (1 Bft) N-NW 337 14,1 C 20,9 C
08.09.2012 18:01 21,0 C 65 % 1019,2 hPa 0,0 l/m 4,0 km/h (1 Bft) N-NO 22 14,2 C 21,0 C
08.09.2012 18:06 21,0 C 65 % 1019,3 hPa 0,0 l/m 7,6 km/h (2 Bft) NW 315 14,2 C 21,0 C
08.09.2012 18:11 21,1 C 66 % 1019,3 hPa 0,0 l/m 14,4 km/h (3 Bft) NW 315 14,5 C 21,1 C
08.09.2012 18:16 21,0 C 66 % 1019,3 hPa 0,0 l/m 12,6 km/h (3 Bft) NW 315 14,4 C 21,0 C
08.09.2012 18:21 21,0 C 66 % 1019,3 hPa 0,0 l/m 3,2 km/h (1 Bft) NW 315 14,4 C 21,0 C
08.09.2012 18:26 20,9 C 66 % 1019,3 hPa 0,0 l/m 5,4 km/h (1 Bft) NW 315 14,3 C 20,9 C
08.09.2012 18:31 21,0 C 66 % 1019,4 hPa 0,0 l/m 5,0 km/h (1 Bft) W 270 14,4 C 21,0 C
08.09.2012 18:36 20,9 C 66 % 1019,4 hPa 0,0 l/m 10,8 km/h (2 Bft) NW 315 14,3 C 20,9 C
08.09.2012 18:41 20,8 C 66 % 1019,3 hPa 0,0 l/m 2,5 km/h (1 Bft) NW 315 14,2 C 20,8 C
08.09.2012 18:46 20,7 C 67 % 1019,4 hPa 0,0 l/m 4,7 km/h (1 Bft) NW 315 14,3 C 20,7 C
08.09.2012 18:51 20,6 C 67 % 1019,5 hPa 0,0 l/m 4,0 km/h (1 Bft) NW 315 14,3 C 20,6 C
08.09.2012 18:56 20,5 C 67 % 1019,4 hPa 0,0 l/m 9,7 km/h (2 Bft) W-NW 292 14,2 C 20,5 C
08.09.2012 19:01 20,4 C 67 % 1019,4 hPa 0,0 l/m 3,6 km/h (1 Bft) NW 315 14,1 C 20,4 C
08.09.2012 19:06 20,5 C 66 % 1019,4 hPa 0,0 l/m 6,1 km/h (2 Bft) NW 315 13,9 C 20,5 C
08.09.2012 19:11 20,3 C 66 % 1019,3 hPa 0,0 l/m 4,0 km/h (1 Bft) W-SW 247 13,7 C 20,3 C
08.09.2012 19:16 20,0 C 67 % 1019,4 hPa 0,0 l/m 2,5 km/h (1 Bft) NW 315 13,7 C 20,0 C
08.09.2012 19:21 19,8 C 68 % 1019,4 hPa 0,0 l/m 7,2 km/h (2 Bft) W-NW 292 13,7 C 19,8 C
08.09.2012 19:26 19,5 C 68 % 1019,4 hPa 0,0 l/m 3,2 km/h (1 Bft) NW 315 13,4 C 19,5 C
08.09.2012 19:31 19,3 C 69 % 1019,4 hPa 0,0 l/m 2,5 km/h (1 Bft) W-NW 292 13,5 C 19,3 C
08.09.2012 19:36 19,1 C 70 % 1019,5 hPa 0,0 l/m 6,8 km/h (2 Bft) NW 315 13,5 C 19,1 C
08.09.2012 19:41 18,9 C 70 % 1019,5 hPa 0,0 l/m 2,5 km/h (1 Bft) NW 315 13,3 C 18,9 C
08.09.2012 19:46 18,8 C 71 % 1019,4 hPa 0,0 l/m 1,8 km/h (1 Bft) NW 315 13,4 C 18,8 C
08.09.2012 19:51 18,6 C 71 % 1019,5 hPa 0,0 l/m 3,2 km/h (1 Bft) NW 315 13,2 C 18,6 C
08.09.2012 19:56 18,4 C 71 % 1019,4 hPa 0,0 l/m 0,0 km/h (0 Bft) NW 315 13,0 C 18,4 C
08.09.2012 20:01 18,3 C 72 % 1019,4 hPa 0,0 l/m 1,1 km/h (1 Bft) W-NW 292 13,2 C 18,3 C
08.09.2012 20:06 18,1 C 73 % 1019,4 hPa 0,0 l/m 1,1 km/h (1 Bft) W-NW 292 13,2 C 18,1 C
08.09.2012 20:11 17,9 C 73 % 1019,4 hPa 0,0 l/m 2,2 km/h (1 Bft) W-NW 292 13,0 C 17,9 C
08.09.2012 20:16 17,8 C 73 % 1019,4 hPa 0,0 l/m 2,2 km/h (1 Bft) W-NW 292 12,9 C 17,8 C
08.09.2012 20:21 17,6 C 74 % 1019,5 hPa 0,0 l/m 4,0 km/h (1 Bft) W-NW 292 12,9 C 17,6 C
08.09.2012 20:26 17,5 C 75 % 1019,6 hPa 0,0 l/m 1,4 km/h (1 Bft) W-NW 292 13,0 C 17,5 C
08.09.2012 20:31 17,3 C 75 % 1019,6 hPa 0,0 l/m 0,0 km/h (0 Bft) W-NW 292 12,8 C 17,3 C
08.09.2012 20:36 17,3 C 75 % 1019,6 hPa 0,0 l/m 0,0 km/h (0 Bft) W-NW 292 12,8 C 17,3 C
08.09.2012 20:41 17,1 C 76 % 1019,7 hPa 0,0 l/m 0,0 km/h (0 Bft) W 270 12,8 C 17,1 C
08.09.2012 20:46 16,9 C 77 % 1019,7 hPa 0,0 l/m 0,0 km/h (0 Bft) W 270 12,8 C 16,9 C
08.09.2012 20:51 16,9 C 77 % 1019,7 hPa 0,0 l/m 0,0 km/h (0 Bft) W 270 12,8 C 16,9 C
08.09.2012 20:56 16,8 C 77 % 1019,7 hPa 0,0 l/m 0,0 km/h (0 Bft) W 270 12,7 C 16,8 C
08.09.2012 21:01 16,6 C 77 % 1019,7 hPa 0,0 l/m 0,0 km/h (0 Bft) W 270 12,5 C 16,6 C
08.09.2012 21:06 16,4 C 77 % 1019,8 hPa 0,0 l/m 0,0 km/h (0 Bft) W 270 12,4 C 16,4 C
08.09.2012 21:11 16,3 C 78 % 1019,9 hPa 0,0 l/m 0,0 km/h (0 Bft) W 270 12,5 C 16,3 C
08.09.2012 21:16 16,1 C 78 % 1019,8 hPa 0,0 l/m 0,0 km/h (0 Bft) W-SW 247 12,3 C 16,1 C
08.09.2012 21:21 15,9 C 79 % 1019,7 hPa 0,0 l/m 0,0 km/h (0 Bft) W-SW 247 12,3 C 15,9 C
08.09.2012 21:26 15,8 C 79 % 1019,7 hPa 0,0 l/m 0,0 km/h (0 Bft) W-SW 247 12,2 C 15,8 C
08.09.2012 21:31 15,6 C 80 % 1019,8 hPa 0,0 l/m 0,0 km/h (0 Bft) W-SW 247 12,2 C 15,6 C
08.09.2012 21:36 15,5 C 80 % 1019,7 hPa 0,0 l/m 0,0 km/h (0 Bft) W-SW 247 12,1 C 15,5 C
08.09.2012 21:41 15,4 C 80 % 1019,8 hPa 0,0 l/m 0,0 km/h (0 Bft) W-SW 247 12,0 C 15,4 C
08.09.2012 21:46 15,3 C 81 % 1019,8 hPa 0,0 l/m 0,0 km/h (0 Bft) W-SW 247 12,1 C 15,3 C
08.09.2012 21:51 15,1 C 81 % 1019,8 hPa 0,0 l/m 0,0 km/h (0 Bft) W-SW 247 11,9 C 15,1 C
08.09.2012 21:56 14,9 C 81 % 1019,8 hPa 0,0 l/m 0,0 km/h (0 Bft) W-SW 247 11,7 C 14,9 C
08.09.2012 22:01 14,9 C 82 % 1019,9 hPa 0,0 l/m 0,0 km/h (0 Bft) W-SW 247 11,9 C 14,9 C
08.09.2012 22:06 14,9 C 82 % 1019,9 hPa 0,0 l/m 0,0 km/h (0 Bft) W 270 11,9 C 14,9 C
08.09.2012 22:11 14,9 C 82 % 1020,0 hPa 0,0 l/m 0,0 km/h (0 Bft) W 270 11,9 C 14,9 C
08.09.2012 22:16 14,9 C 83 % 1020,0 hPa 0,0 l/m 0,0 km/h (0 Bft) W 270 12,0 C 14,9 C
08.09.2012 22:21 14,9 C 83 % 1020,1 hPa 0,0 l/m 0,0 km/h (0 Bft) W-NW 292 12,0 C 14,9 C
08.09.2012 22:26 14,8 C 84 % 1020,1 hPa 0,0 l/m 0,0 km/h (0 Bft) W-NW 292 12,1 C 14,8 C
08.09.2012 22:31 14,8 C 84 % 1020,0 hPa 0,0 l/m 0,0 km/h (0 Bft) W-NW 292 12,1 C 14,8 C
08.09.2012 22:36 14,8 C 84 % 1020,1 hPa 0,0 l/m 0,0 km/h (0 Bft) W-NW 292 12,1 C 14,8 C
08.09.2012 22:41 14,7 C 84 % 1020,0 hPa 0,0 l/m 0,0 km/h (0 Bft) W-NW 292 12,0 C 14,7 C
08.09.2012 22:46 14,6 C 84 % 1020,1 hPa 0,0 l/m 0,0 km/h (0 Bft) W-NW 292 11,9 C 14,6 C
08.09.2012 22:51 14,5 C 84 % 1020,1 hPa 0,0 l/m 0,0 km/h (0 Bft) W-NW 292 11,8 C 14,5 C
08.09.2012 22:56 14,4 C 85 % 1020,1 hPa 0,0 l/m 0,0 km/h (0 Bft) W-NW 292 11,9 C 14,4 C
08.09.2012 23:01 14,3 C 84 % 1020,1 hPa 0,0 l/m 0,0 km/h (0 Bft) W-NW 292 11,6 C 14,3 C
08.09.2012 23:06 14,3 C 84 % 1020,2 hPa 0,0 l/m 0,0 km/h (0 Bft) W-NW 292 11,6 C 14,3 C
08.09.2012 23:11 14,2 C 84 % 1020,1 hPa 0,0 l/m 0,0 km/h (0 Bft) W-NW 292 11,5 C 14,2 C
08.09.2012 23:16 14,1 C 84 % 1020,2 hPa 0,0 l/m 0,0 km/h (0 Bft) W-NW 292 11,4 C 14,1 C
08.09.2012 23:21 13,9 C 85 % 1020,2 hPa 0,0 l/m 0,0 km/h (0 Bft) W-NW 292 11,4 C 13,9 C
08.09.2012 23:26 13,9 C 85 % 1020,3 hPa 0,0 l/m 0,0 km/h (0 Bft) W-NW 292 11,4 C 13,9 C
08.09.2012 23:31 13,8 C 85 % 1020,3 hPa 0,0 l/m 0,0 km/h (0 Bft) W-NW 292 11,3 C 13,8 C
08.09.2012 23:36 13,6 C 85 % 1020,3 hPa 0,0 l/m 0,0 km/h (0 Bft) W-NW 292 11,1 C 13,6 C
08.09.2012 23:41 13,7 C 85 % 1020,4 hPa 0,0 l/m 0,0 km/h (0 Bft) W-NW 292 11,2 C 13,7 C
08.09.2012 23:46 13,6 C 85 % 1020,5 hPa 0,0 l/m 0,0 km/h (0 Bft) W-NW 292 11,1 C 13,6 C
08.09.2012 23:51 13,6 C 86 % 1020,5 hPa 0,0 l/m 0,0 km/h (0 Bft) W-NW 292 11,3 C 13,6 C
08.09.2012 23:56 13,5 C 86 % 1020,5 hPa 0,0 l/m 0,0 km/h (0 Bft) W-NW 292 11,2 C 13,5 C
_ Min-Zeit 23:56 16:41 16:46 - 00:06 - - 23:36 23:56
Minimum _ 13,5 C 61 % 1019,2 hPa - 0,0 km/h (0 Bft) - - 11,1 C 13,5 C
_ Max-Zeit 16:06 05:36 00:01 01:16 15:56 - - 11:56 16:06
Maximum _ 22,9 C 92 % 1021,4 hPa 0,5 l/m 26,6 km/h
W-NW (4 Bft)
- - 16,6 C 22,9 C
Durchschnitt _ 17,6 C 82 % 1020,2 hPa #5,2 l/m 5,4 km/h (1 Bft) W-NW - 14,2 C 17,6 C
(c) by David Heller